OBJECT AD, 63237

Orbit data source: Space-Track

You're viewing an Uncataloged Satellite

Recently launched and/or uncataloged satellites may have evolving metadata. Metadata may include but not limited to: Owner, Maufacturer, Bus, Motor, and Mission.

OBJECT AD, 63237 is a satellite in SSO that was launched on Sat, 15 Mar 2025 UTC via an FALCON 9 launch vehicle from the Air Force Western Test Range (AFWTR). Unknown objects in Earth's orbit typically refer to objects detected orbiting the Earth but have not yet been identified or cataloged. These objects could be anything from previously untracked satellites, spent rocket stages, debris from satellite collisions, or even natural meteoroids temporarily captured by Earth's gravity.

Loading next visibility...
Identifier
63237, 2025-052AD
Orbit
SSO
Country
Flag of TBDTBD
Related business
Flag of ILTel Aviv University (IL)
Manufacturer
ISA/TAU
Mission
Operational Amateur Communications
Bus & Motor
CUBESAT 1U, Unknown motor
Mass
1 kg wet, 1 kg dry
Launch date (UTC)
2025-03-15 (1 year ago)
Launch vehicle
FALCON 9
Launch site
Air Force Western Test Range (AFWTR)
Object type
Unknown
Shape & HBR
Box, 0.1 m
Radar Cross Section
0.015 m², Small (<0.1 m²)

Expand to show TLE details & history
Last TLE update: 7 hours ago

TLE from 7 hours ago
0 OBJECT AD
1 63237U 25052AD  26129.92830482  .00011085  00000-0  37543-3 0  9991
2 63237  97.3978  25.3569 0004076 281.1856  78.8926 15.30740872 64179
Epoch: 2026-05-09T22:16Z
TLE epoch observation values (Epoch: 2026-05-09T22:16:45.536Z)
Latitude
-0.00009°
Longitude
-176.57153°
Altitude
476.169 km
Speed
7.628 km/s
True Right ascension
01h 41m 25s
True Declination
0° 00' 00"
Sunlit
Object was in daylight at epoch
Visualization orbit readout
Latitude
Unknown
Longitude
Unknown
Altitude
Unknown
Speed
Unknown
Apparent Right ascension
Unknown
Apparent Declination
Unknown
Sunlit
N/A
Visualization observer readout
Local Sidereal Time
13:32:30
Azimuth
Unknown
Elevation
Unknown
Doppler factor
Unknown
Orbital elements
Apogee altitude
473.343 km
Perigee altitude
467.76 km
Semi-major axis
6,848.689 km
Eccentricity
0.00041
Inclination
97.3978°
RAAN
25.3569°
Arg. of periapsis
281.1856°
True anomaly
78.93844°
Mean anomaly
78.8926°
Eccentric anomaly
78.91552°
Mean motion
3.82941 °/min
Orbital period
94.01 mins
BSTAR
0.00037543
Loading maneuver chart data...
Computing Atmospheric mass density...
Loading historical data...
Loading historical data...
Loading historical data...
Loading historical data...
Loading historical data...
Loading historical data...
Loading historical data...

Documentation

Showing up to 5 results
|